EW5287 Weather Reports


Display with metric or nautical units.
time (UTC)temp
F
wind
direction
speed
MPH
gust
MPH
rain 1hr
in
rain 24hr
in
rain mn
in
humidity
%
barometer
mb
20200124131643 34 171 0.0 0.0 0.00 0.01 0.01 96 1025.1
20200124130124 34 155 0.0 0.0 0.00 0.01 0.01 96 1025.2
20200124124644 34 236 0.0 0.0 0.00 0.01 0.01 96 1025.4
20200124123244 34 235 0.0 0.0 0.00 0.01 0.01 96 1025.6
20200124121655 34 235 0.0 0.0 0.00 0.01 0.01 96 1025.8
20200124120143 34 235 0.0 0.0 0.00 0.01 0.01 96 1026.0
20200124114756 34 234 0.0 0.0 0.00 0.01 0.01 96 1026.1
20200124113239 34 246 0.0 0.0 0.00 0.01 0.01 96 1026.2
20200124111703 34 247 0.0 0.0 0.00 0.01 0.01 96 1026.1
20200124110123 34 250 0.0 0.0 0.00 0.01 0.01 96 1026.1
20200124104609 34 252 0.0 0.0 0.00 0.01 0.01 96 1026.2
20200124103131 34 244 0.0 0.0 0.00 0.01 0.01 96 1026.1
20200124101708 34 244 0.0 0.0 0.00 0.01 0.01 96 1026.0
20200124100124 34 238 0.0 0.0 0.00 0.01 0.01 96 1025.9
20200124094640 34 242 0.0 0.0 0.00 0.01 0.01 96 1025.8
20200124093104 34 161 0.0 0.0 0.00 0.01 0.01 96 1025.8
20200124091559 34 161 0.0 0.0 0.00 0.01 0.01 96 1025.7
20200124090119 34 179 0.0 0.0 0.00 0.01 0.01 96 1025.8
20200124084609 34 202 0.0 0.0 0.00 0.01 0.01 96 1025.8
20200124083125 34 206 0.0 0.0 0.00 0.01 0.01 96 1025.7
20200124081713 34 206 0.0 0.0 0.00 0.01 0.01 96 1025.5
20200124080118 34 206 0.0 0.0 0.00 0.01 0.01 96 1025.6
20200124074601 34 192 0.0 0.0 0.00 0.01 0.01 96 1025.4
20200124073044 34 192 0.0 0.0 0.00 0.01 0.01 96 1025.5
20200124071603 34 173 0.0 0.0 0.00 0.01 0.01 96 1025.4
20200124070107 35 202 0.0 0.0 0.00 0.01 0.01 96 1025.4
20200124064549 35 228 0.0 0.0 0.00 0.01 0.01 96 1025.4
20200124063045 35 243 0.0 0.0 0.00 0.01 0.01 96 1025.3
20200124061548 35 241 0.0 0.0 0.00 0.01 0.01 96 1025.3
20200124060034 35 242 0.0 0.0 0.00 0.01 0.01 96 1025.3
20200124054611 35 208 0.0 0.0 0.00 0.01 0.01 96 1025.4
20200124053057 35 208 0.0 0.0 0.00 0.01 0.01 96 1025.4
20200124051607 35 240 0.0 0.0 0.00 0.01 0.01 96 1025.4
20200124050052 35 174 0.0 0.0 0.00 0.01 0.01 96 1025.4
20200124044536 35 174 0.0 0.0 0.00 0.01 0.01 96 1025.6
20200124043038 35 174 0.0 0.0 0.00 0.01 0.01 96 1025.7
20200124041524 35 179 0.0 0.0 0.00 0.01 0.01 96 1025.9
20200124040039 35 178 0.0 0.0 0.00 0.01 0.01 96 1025.8
20200124034538 35 173 0.0 0.0 0.00 0.01 0.01 96 1025.9
20200124033019 36 173 0.0 0.0 0.00 0.01 0.01 96 1025.9
20200124031517 36 225 0.0 0.0 0.00 0.01 0.01 96 1026.0
20200124030020 36 194 0.0 0.0 0.00 0.01 0.01 96 1025.9
20200124024543 36 197 0.0 0.0 0.00 0.01 0.01 96 1026.0
20200124023021 36 209 0.0 0.0 0.00 0.01 0.01 96 1026.2
20200124021512 36 209 0.0 0.0 0.00 0.01 0.01 96 1026.4
20200124014543 36 265 0.0 0.0 0.00 0.01 0.01 96 1026.7
20200124013228 36 207 0.0 0.0 0.00 0.01 0.01 96 1026.9
20200124011640 36 207 0.0 0.0 0.00 0.01 0.01 96 1026.9
20200124010123 36 80 0.0 0.0 0.01 0.01 0.01 96 1027.1
20200124004532 36 80 0.0 0.0 0.01 0.01 0.01 96 1027.2
20200124003216 36 80 0.0 0.0 0.01 0.01 0.01 96 1027.2
20200124001656 36 80 0.0 0.0 0.01 0.01 0.01 96 1027.3
20200124000119 36 75 0.0 0.0 0.00 0.00 0.00 96 1027.6
20200123234630 36 61 0.0 0.0 0.00 0.00 0.00 96 1027.7
20200123233042 36 61 0.0 0.0 0.00 0.00 0.00 96 1027.9
20200123231553 36 57 0.0 0.0 0.00 0.00 0.00 96 1027.9
20200123224528 35 57 0.0 0.0 0.00 0.00 0.00 96 1027.7
20200123223037 35 57 0.0 0.0 0.00 0.00 0.00 96 1027.8
20200123221534 35 57 0.0 0.0 0.00 0.00 0.00 96 1027.9
20200123220020 35 57 0.0 0.0 0.00 0.00 0.00 96 1027.9
20200123214523 35 57 0.0 0.0 0.00 0.00 0.00 96 1028.1
20200123213028 35 30 0.0 0.0 0.00 0.00 0.00 96 1028.2
20200123211608 35 53 0.0 0.0 0.00 0.00 0.00 96 1028.0
20200123210029 35 65 0.0 0.0 0.00 0.00 0.00 96 1028.2
20200123204510 35 65 0.0 0.0 0.00 0.00 0.00 96 1028.1
20200123203019 35 65 0.0 0.0 0.00 0.00 0.00 96 1028.3
20200123201506 35 110 0.0 0.0 0.00 0.00 0.00 96 1028.3
20200123193225 35 33 0.0 0.0 0.00 0.00 0.00 96 1028.6
20200123191612 35 19 0.0 0.0 0.00 0.00 0.00 95 1028.6
20200123190146 35 46 0.0 0.0 0.00 0.00 0.00 96 1028.7
20200123184816 36 48 0.0 0.0 0.00 0.00 0.00 95 1028.8
20200123183215 36 107 0.0 0.0 0.00 0.00 0.00 95 1028.8
20200123181628 36 84 0.0 0.0 0.00 0.00 0.00 95 1028.7
20200123180214 36 76 0.0 0.0 0.00 0.00 0.00 95 1028.7
20200123174752 36 90 0.0 0.0 0.00 0.00 0.00 95 1028.9
20200123173234 36 102 0.0 0.0 0.00 0.00 0.00 95 1029.0
20200123171703 36 47 0.0 0.0 0.00 0.00 0.00 95 1029.1
20200123170141 36 84 0.0 0.0 0.00 0.00 0.00 95 1029.2
20200123164628 36 76 0.0 0.0 0.00 0.00 0.00 95 1029.4
20200123163132 36 76 0.0 0.0 0.00 0.00 0.00 95 1029.4
20200123161553 36 46 0.0 0.0 0.00 0.00 0.00 95 1029.5
20200123160237 37 45 0.0 0.0 0.00 0.00 0.00 95 1029.5
20200123154635 37 26 0.0 0.0 0.00 0.00 0.00 94 1029.6
20200123153134 37 61 0.0 0.0 0.00 0.00 0.00 94 1029.7
20200123151740 37 10 0.0 1.0 0.00 0.00 0.00 94 1029.8
20200123150129 37 82 0.0 0.0 0.00 0.00 0.00 94 1030.0
20200123144544 37 61 0.0 0.0 0.00 0.00 0.00 94 1030.1
20200123143054 37 60 0.0 0.0 0.00 0.00 0.00 94 1030.4
20200123141546 37 61 0.0 0.0 0.00 0.00 0.00 94 1030.5
20200123134651 37 86 0.0 0.0 0.00 0.00 0.00 93 1031.0
20200123133156 37 75 0.0 0.0 0.00 0.00 0.00 93 1031.2